,,,PA_Meas_PMT16A,,PR_Meas_QMR101_102,,RH_Meas_QMH101,,SR_Meas_QMS101,,TA_Meas_QMH101,,GenWind,,GenWind,
date,time,status,PA,status,PR,status,RH,status,SR,status,TA,status,DirAvg,status,SpdAvg,
2011-10-29, 00:00:05,VALID,1006.679,VALID,0.0,VALID,74.443,VALID,22.871,VALID,26.889,VALID,227.0,VALID,0.586,
2011-10-29, 00:01:05,VALID,1006.658,VALID,0.0,VALID,74.481,VALID,21.862,VALID,26.87,VALID,220.0,VALID,0.485,
2011-10-29, 00:02:05,VALID,1006.692,VALID,0.0,VALID,74.58,VALID,20.853,VALID,26.87,VALID,215.0,VALID,0.967,
2011-10-29, 00:03:05,VALID,1006.643,VALID,0.0,VALID,74.771,VALID,19.844,VALID,26.852,VALID,267.0,VALID,0.785,
2011-10-29, 00:04:05,VALID,1006.671,VALID,0.0,VALID,74.587,VALID,18.835,VALID,26.833,VALID,218.0,VALID,0.57,
2011-10-29, 00:05:05,VALID,1006.661,VALID,0.0,VALID,74.671,VALID,17.826,VALID,26.794,VALID,230.0,VALID,0.511,
2011-10-29, 00:06:05,VALID,1006.676,VALID,0.0,VALID,74.687,VALID,16.817,VALID,26.794,VALID,249.0,VALID,1.118,
2011-10-29, 00:07:05,VALID,1006.682,VALID,0.0,VALID,74.816,VALID,15.92,VALID,26.753,VALID,240.0,VALID,0.452,
2011-10-29, 00:08:05,VALID,1006.7,VALID,0.0,VALID,75.51,VALID,14.911,VALID,26.753,VALID,237.0,VALID,0.096,
2011-10-29, 00:09:05,VALID,1006.707,VALID,0.0,VALID,75.449,VALID,13.902,VALID,26.735,VALID,235.0,VALID,0.0,
2011-10-29, 00:10:05,VALID,1006.713,VALID,0.0,VALID,75.785,VALID,13.005,VALID,26.735,VALID,235.0,VALID,0.004,
2011-10-29, 00:11:05,VALID,1006.696,VALID,0.0,VALID,75.48,VALID,11.996,VALID,26.655,VALID,230.0,VALID,0.532,
2011-10-29, 00:12:05,VALID,1006.711,VALID,0.0,VALID,75.747,VALID,10.987,VALID,26.636,VALID,221.0,VALID,0.462,
2011-10-29, 00:13:05,VALID,1006.694,VALID,0.0,VALID,76.441,VALID,10.09,VALID,26.638,VALID,228.0,VALID,0.044,
2011-10-29, 00:14:05,VALID,1006.722,VALID,0.0,VALID,76.334,VALID,9.193,VALID,26.577,VALID,228.0,VALID,0.125,
2011-10-29, 00:15:05,VALID,1006.725,VALID,0.0,VALID,76.555,VALID,8.296,VALID,26.538,VALID,228.0,VALID,0.125,
2011-10-29, 00:16:05,VALID,1006.75,VALID,0.0,VALID,77.417,VALID,7.399,VALID,26.48,VALID,228.0,VALID,0.507,
2011-10-29, 00:17:05,VALID,1006.748,VALID,0.0,VALID,77.729,VALID,6.503,VALID,26.443,VALID,228.0,VALID,0.313,
2011-10-29, 00:18:05,VALID,1006.757,VALID,0.0,VALID,80.276,VALID,5.83,VALID,26.363,VALID,228.0,VALID,0.354,
2011-10-29, 00:19:05,VALID,1006.788,VALID,0.0,VALID,80.444,VALID,5.045,VALID,26.226,VALID,228.0,VALID,0.323,
2011-10-29, 00:20:05,VALID,1006.831,VALID,0.0,VALID,80.894,VALID,4.372,VALID,26.09,VALID,228.0,VALID,0.303,
2011-10-29, 00:21:05,VALID,1006.857,VALID,0.0,VALID,81.71,VALID,3.7,VALID,25.953,VALID,228.0,VALID,0.287,
2011-10-29, 00:22:05,VALID,1006.878,VALID,0.0,VALID,82.328,VALID,3.139,VALID,25.817,VALID,228.0,VALID,0.211,
2011-10-29, 00:23:05,VALID,1006.882,VALID,0.0,VALID,82.9,VALID,2.466,VALID,25.698,VALID,228.0,VALID,0.168,
2011-10-29, 00:24:05,VALID,1006.912,VALID,0.0,VALID,84.974,VALID,2.13,VALID,25.622,VALID,228.0,VALID,0.18,
2011-10-29, 00:25:05,VALID,1006.941,VALID,0.0,VALID,88.36,VALID,1.794,VALID,25.544,VALID,228.0,VALID,0.171,
2011-10-29, 00:26:05,VALID,1006.956,VALID,0.0,VALID,91.631,VALID,1.457,VALID,25.466,VALID,228.0,VALID,0.141,
2011-10-29, 00:27:05,VALID,1006.967,VALID,0.0,VALID,92.844,VALID,1.345,VALID,25.407,VALID,228.0,VALID,0.066,
2011-10-29, 00:28:05,VALID,1006.958,VALID,0.0,VALID,94.01,VALID,1.121,VALID,25.329,VALID,228.0,VALID,0.118,
2011-10-29, 00:29:05,VALID,1006.976,VALID,0.0,VALID,95.65,VALID,1.009,VALID,25.271,VALID,228.0,VALID,0.147,
2011-10-29, 00:30:05,VALID,1006.992,VALID,0.0,VALID,97.472,VALID,0.673,VALID,25.214,VALID,228.0,VALID,0.0,
2011-10-29, 00:31:05,VALID,1006.963,VALID,0.0,VALID,97.343,VALID,0.673,VALID,25.134,VALID,228.0,VALID,0.063,
2011-10-29, 00:32:05,VALID,1006.98,VALID,0.0,VALID,98.815,VALID,0.448,VALID,25.095,VALID,228.0,VALID,0.0,
2011-10-29, 00:33:05,VALID,1006.975,VALID,0.0,VALID,99.325,VALID,0.336,VALID,25.076,VALID,228.0,VALID,0.159,
2011-10-29, 00:34:05,VALID,1006.994,VALID,0.0,VALID,99.493,VALID,0.336,VALID,25.037,VALID,228.0,VALID,0.171,
2011-10-29, 00:35:05,VALID,1007.017,VALID,0.0,VALID,99.463,VALID,0.224,VALID,24.998,VALID,228.0,VALID,0.112,
2011-10-29, 00:36:05,VALID,1007.023,VALID,0.0,VALID,99.508,VALID,0.224,VALID,24.959,VALID,228.0,VALID,0.179,
2011-10-29, 00:37:05,VALID,1007.039,VALID,0.0,VALID,99.745,VALID,0.224,VALID,24.92,VALID,228.0,VALID,0.203,
2011-10-29, 00:38:05,VALID,1007.06,VALID,0.0,VALID,100.225,VALID,0.224,VALID,24.92,VALID,228.0,VALID,0.153,
2011-10-29, 00:39:05,VALID,1007.088,VALID,0.0,VALID,100.187,VALID,0.112,VALID,24.902,VALID,228.0,VALID,0.2,
2011-10-29, 00:40:05,VALID,1007.088,VALID,0.0,VALID,100.309,VALID,0.112,VALID,24.9,VALID,228.0,VALID,0.254,
2011-10-29, 00:41:05,VALID,1007.102,VALID,0.0,VALID,100.332,VALID,0.112,VALID,24.861,VALID,228.0,VALID,0.2,
2011-10-29, 00:42:05,VALID,1007.114,VALID,0.0,VALID,100.317,VALID,0.112,VALID,24.842,VALID,228.0,VALID,0.127,
2011-10-29, 00:43:05,VALID,1007.121,VALID,0.0,VALID,99.867,VALID,0.0,VALID,24.805,VALID,228.0,VALID,0.0,
2011-10-29, 00:44:05,VALID,1007.113,VALID,0.0,VALID,100.012,VALID,0.0,VALID,24.764,VALID,228.0,VALID,0.0,
2011-10-29, 00:45:05,VALID,1007.099,VALID,0.0,VALID,99.836,VALID,0.0,VALID,24.746,VALID,228.0,VALID,0.0,
2011-10-29, 00:46:05,VALID,1007.099,VALID,0.0,VALID,99.852,VALID,0.0,VALID,24.686,VALID,228.0,VALID,0.0,
2011-10-29, 00:47:05,VALID,1007.088,VALID,0.0,VALID,100.309,VALID,0.112,VALID,24.686,VALID,228.0,VALID,0.0,
2011-10-29, 00:48:05,VALID,1007.111,VALID,0.0,VALID,100.683,VALID,0.0,VALID,24.667,VALID,228.0,VALID,0.0,
2011-10-29, 00:49:05,VALID,1007.101,VALID,0.0,VALID,100.873,VALID,0.112,VALID,24.647,VALID,228.0,VALID,0.0,
2011-10-29, 00:50:05,VALID,1007.096,VALID,0.0,VALID,100.812,VALID,0.0,VALID,24.608,VALID,228.0,VALID,0.0,
2011-10-29, 00:51:05,VALID,1007.094,VALID,0.0,VALID,100.774,VALID,0.112,VALID,24.589,VALID,228.0,VALID,0.0,
2011-10-29, 00:52:05,VALID,1007.077,VALID,0.0,VALID,101.018,VALID,0.112,VALID,24.589,VALID,228.0,VALID,0.0,
2011-10-29, 00:53:05,VALID,1007.089,VALID,0.0,VALID,101.308,VALID,0.112,VALID,24.548,VALID,228.0,VALID,0.0,
2011-10-29, 00:54:05,VALID,1007.08,VALID,0.0,VALID,101.438,VALID,0.112,VALID,24.55,VALID,228.0,VALID,0.0,
2011-10-29, 00:55:05,VALID,1007.072,VALID,0.0,VALID,101.407,VALID,0.112,VALID,24.532,VALID,228.0,VALID,0.0,
2011-10-29, 00:56:05,VALID,1007.123,VALID,0.0,VALID,101.491,VALID,0.0,VALID,24.491,VALID,228.0,VALID,0.0,
2011-10-29, 00:57:05,VALID,1007.13,VALID,0.0,VALID,101.659,VALID,0.0,VALID,24.472,VALID,228.0,VALID,0.0,
2011-10-29, 00:58:05,VALID,1007.14,VALID,0.0,VALID,101.903,VALID,0.112,VALID,24.452,VALID,228.0,VALID,0.0,
2011-10-29, 00:59:05,VALID,1007.183,VALID,0.0,VALID,101.956,VALID,0.0,VALID,24.433,VALID,228.0,VALID,0.0,
2011-10-29, 01:00:05,VALID,1007.181,VALID,0.0,VALID,101.903,VALID,0.112,VALID,24.413,VALID,228.0,VALID,0.23,
2011-10-29, 01:01:05,VALID,1007.169,VALID,0.0,VALID,101.926,VALID,0.112,VALID,24.433,VALID,228.0,VALID,0.308,
2011-10-29, 01:02:05,VALID,1007.195,VALID,0.0,VALID,101.949,VALID,0.0,VALID,24.413,VALID,228.0,VALID,0.298,
2011-10-29, 01:03:05,VALID,1007.189,VALID,0.0,VALID,102.17,VALID,0.112,VALID,24.435,VALID,228.0,VALID,0.324,
2011-10-29, 01:04:05,VALID,1007.194,VALID,0.0,VALID,102.238,VALID,0.112,VALID,24.394,VALID,228.0,VALID,0.356,
2011-10-29, 01:05:05,VALID,1007.198,VALID,0.0,VALID,102.315,VALID,0.112,VALID,24.372,VALID,228.0,VALID,0.375,
2011-10-29, 01:06:05,VALID,1007.263,VALID,0.0,VALID,102.444,VALID,0.112,VALID,24.374,VALID,228.0,VALID,0.406,
2011-10-29, 01:07:05,VALID,1007.261,VALID,0.0,VALID,102.597,VALID,0.112,VALID,24.335,VALID,229.0,VALID,0.385,
2011-10-29, 01:08:05,VALID,1007.292,VALID,0.0,VALID,102.772,VALID,0.0,VALID,24.296,VALID,244.0,VALID,0.455,
2011-10-29, 01:09:05,VALID,1007.304,VALID,0.0,VALID,102.833,VALID,0.0,VALID,24.277,VALID,244.0,VALID,0.369,
2011-10-29, 01:10:05,VALID,1007.338,VALID,0.0,VALID,102.948,VALID,0.0,VALID,24.238,VALID,244.0,VALID,0.329,
2011-10-29, 01:11:05,VALID,1007.331,VALID,0.0,VALID,103.07,VALID,0.0,VALID,24.238,VALID,244.0,VALID,0.229,
2011-10-29, 01:12:05,VALID,1007.322,VALID,0.0,VALID,103.169,VALID,0.0,VALID,24.199,VALID,243.0,VALID,0.127,
2011-10-29, 01:13:05,VALID,1007.307,VALID,0.0,VALID,103.268,VALID,0.0,VALID,24.199,VALID,243.0,VALID,0.119,
2011-10-29, 01:14:05,VALID,1007.32,VALID,0.0,VALID,103.398,VALID,0.112,VALID,24.199,VALID,244.0,VALID,0.132,
2011-10-29, 01:15:05,VALID,1007.31,VALID,0.0,VALID,103.474,VALID,0.0,VALID,24.179,VALID,244.0,VALID,0.109,
2011-10-29, 01:16:05,VALID,1007.339,VALID,0.0,VALID,103.565,VALID,0.112,VALID,24.139,VALID,243.0,VALID,0.0,
2011-10-29, 01:17:05,VALID,1007.333,VALID,0.0,VALID,103.642,VALID,0.112,VALID,24.14,VALID,244.0,VALID,0.0,
2011-10-29, 01:18:05,VALID,1007.355,VALID,0.0,VALID,103.733,VALID,0.112,VALID,24.16,VALID,243.0,VALID,0.0,
2011-10-29, 01:19:05,VALID,1007.33,VALID,0.0,VALID,103.84,VALID,0.112,VALID,24.139,VALID,243.0,VALID,0.0,
2011-10-29, 01:20:05,VALID,1007.352,VALID,0.0,VALID,103.87,VALID,0.112,VALID,24.16,VALID,243.0,VALID,0.312,
2011-10-29, 01:21:05,VALID,1007.378,VALID,0.0,VALID,103.87,VALID,0.0,VALID,24.16,VALID,244.0,VALID,0.377,
2011-10-29, 01:22:05,VALID,1007.338,VALID,0.0,VALID,103.848,VALID,0.0,VALID,24.16,VALID,243.0,VALID,0.322,
2011-10-29, 01:23:05,VALID,1007.339,VALID,0.0,VALID,103.87,VALID,0.112,VALID,24.14,VALID,243.0,VALID,0.348,
2011-10-29, 01:24:05,VALID,1007.319,VALID,0.0,VALID,103.855,VALID,0.112,VALID,24.14,VALID,243.0,VALID,0.0,
2011-10-29, 01:25:05,VALID,1007.302,VALID,0.0,VALID,103.901,VALID,0.0,VALID,24.142,VALID,243.0,VALID,0.0,
2011-10-29, 01:26:05,VALID,1007.321,VALID,0.0,VALID,103.909,VALID,0.0,VALID,24.123,VALID,243.0,VALID,0.0,
2011-10-29, 01:27:05,VALID,1007.31,VALID,0.0,VALID,103.924,VALID,0.0,VALID,24.101,VALID,243.0,VALID,0.0,
2011-10-29, 01:28:05,VALID,1007.321,VALID,0.0,VALID,103.962,VALID,0.0,VALID,24.103,VALID,243.0,VALID,0.0,
2011-10-29, 01:29:05,VALID,1007.351,VALID,0.0,VALID,104.0,VALID,0.0,VALID,24.103,VALID,243.0,VALID,0.0,
2011-10-29, 01:30:05,VALID,1007.329,VALID,0.0,VALID,104.0,VALID,0.0,VALID,24.084,VALID,243.0,VALID,0.0,
2011-10-29, 01:31:05,VALID,1007.362,VALID,0.0,VALID,104.0,VALID,0.0,VALID,24.103,VALID,243.0,VALID,0.0,
2011-10-29, 01:32:05,VALID,1007.359,VALID,0.0,VALID,104.0,VALID,0.0,VALID,24.082,VALID,243.0,VALID,0.0,
2011-10-29, 01:33:05,VALID,1007.373,VALID,0.0,VALID,104.0,VALID,0.0,VALID,24.103,VALID,243.0,VALID,0.0,
2011-10-29, 01:34:05,VALID,1007.397,VALID,0.0,VALID,104.0,VALID,0.0,VALID,24.103,VALID,243.0,VALID,0.0,
2011-10-29, 01:35:05,VALID,1007.441,VALID,0.0,VALID,104.0,VALID,0.0,VALID,24.084,VALID,243.0,VALID,0.0,
2011-10-29, 01:36:05,VALID,1007.443,VALID,0.0,VALID,104.0,VALID,0.0,VALID,24.064,VALID,243.0,VALID,0.0,
2011-10-29, 01:37:05,VALID,1007.457,VALID,0.0,VALID,104.0,VALID,0.0,VALID,24.045,VALID,243.0,VALID,0.0,
2011-10-29, 01:38:05,VALID,1007.455,VALID,0.0,VALID,104.0,VALID,0.0,VALID,24.025,VALID,243.0,VALID,0.0,
2011-10-29, 01:39:05,VALID,1007.429,VALID,0.0,VALID,104.0,VALID,0.0,VALID,24.025,VALID,244.0,VALID,0.0,
2011-10-29, 01:40:05,VALID,1007.416,VALID,0.0,VALID,104.0,VALID,0.0,VALID,24.045,VALID,243.0,VALID,0.0,
2011-10-29, 01:41:05,VALID,1007.386,VALID,0.0,VALID,104.0,VALID,0.0,VALID,24.064,VALID,244.0,VALID,0.0,
2011-10-29, 01:42:05,VALID,1007.358,VALID,0.0,VALID,104.0,VALID,0.0,VALID,24.045,VALID,244.0,VALID,0.0,
2011-10-29, 01:43:05,VALID,1007.371,VALID,0.0,VALID,104.0,VALID,0.0,VALID,24.084,VALID,243.0,VALID,0.0,
2011-10-29, 01:44:05,VALID,1007.407,VALID,0.0,VALID,104.0,VALID,0.0,VALID,24.084,VALID,243.0,VALID,0.0,
2011-10-29, 01:45:05,VALID,1007.448,VALID,0.0,VALID,104.0,VALID,0.0,VALID,24.103,VALID,243.0,VALID,0.0,
2011-10-29, 01:46:05,VALID,1007.458,VALID,0.0,VALID,104.0,VALID,0.0,VALID,24.103,VALID,244.0,VALID,0.0,
2011-10-29, 01:47:05,VALID,1007.503,VALID,0.0,VALID,104.0,VALID,0.0,VALID,24.084,VALID,243.0,VALID,0.0,
2011-10-29, 01:48:05,VALID,1007.543,VALID,0.0,VALID,104.0,VALID,0.0,VALID,24.062,VALID,243.0,VALID,0.0,
2011-10-29, 01:49:05,VALID,1007.588,VALID,0.0,VALID,104.0,VALID,0.0,VALID,24.064,VALID,244.0,VALID,0.0,
2011-10-29, 01:50:05,VALID,1007.584,VALID,0.0,VALID,104.0,VALID,0.0,VALID,24.084,VALID,244.0,VALID,0.0,
2011-10-29, 01:51:05,VALID,1007.594,VALID,0.0,VALID,104.0,VALID,0.0,VALID,24.103,VALID,243.0,VALID,0.0,
2011-10-29, 01:52:05,VALID,1007.611,VALID,0.0,VALID,104.0,VALID,0.0,VALID,24.142,VALID,243.0,VALID,0.0,
2011-10-29, 01:53:05,VALID,1007.615,VALID,0.0,VALID,104.0,VALID,0.0,VALID,24.181,VALID,244.0,VALID,0.0,
2011-10-29, 01:54:05,VALID,1007.627,VALID,0.0,VALID,104.0,VALID,0.0,VALID,24.162,VALID,243.0,VALID,0.0,
2011-10-29, 01:55:05,VALID,1007.576,VALID,0.0,VALID,104.0,VALID,0.0,VALID,24.181,VALID,243.0,VALID,0.0,
2011-10-29, 01:56:05,VALID,1007.564,VALID,0.0,VALID,104.0,VALID,0.0,VALID,24.181,VALID,243.0,VALID,0.0,
2011-10-29, 01:57:05,VALID,1007.546,VALID,0.0,VALID,104.0,VALID,0.0,VALID,24.162,VALID,244.0,VALID,0.0,
2011-10-29, 01:58:05,VALID,1007.538,VALID,0.0,VALID,104.0,VALID,0.0,VALID,24.162,VALID,243.0,VALID,0.0,
2011-10-29, 01:59:05,VALID,1007.547,VALID,0.0,VALID,104.0,VALID,0.0,VALID,24.162,VALID,243.0,VALID,0.0,
2011-10-29, 02:00:05,VALID,1007.543,VALID,0.0,VALID,104.0,VALID,0.0,VALID,24.14,VALID,244.0,VALID,0.0,
2011-10-29, 02:01:05,VALID,1007.533,VALID,0.0,VALID,104.0,VALID,0.0,VALID,24.164,VALID,243.0,VALID,0.0,
2011-10-29, 02:02:05,VALID,1007.568,VALID,0.0,VALID,104.0,VALID,0.0,VALID,24.123,VALID,244.0,VALID,0.0,
2011-10-29, 02:03:05,VALID,1007.578,VALID,0.0,VALID,104.0,VALID,0.0,VALID,24.123,VALID,244.0,VALID,0.0,
2011-10-29, 02:04:05,VALID,1007.63,VALID,0.0,VALID,104.0,VALID,0.0,VALID,24.123,VALID,244.0,VALID,0.0,
2011-10-29, 02:05:05,VALID,1007.653,VALID,0.0,VALID,104.0,VALID,0.0,VALID,24.103,VALID,243.0,VALID,0.0,
2011-10-29, 02:06:05,VALID,1007.66,VALID,0.0,VALID,104.0,VALID,0.0,VALID,24.103,VALID,243.0,VALID,0.0,
2011-10-29, 02:07:05,VALID,1007.683,VALID,0.0,VALID,104.0,VALID,0.0,VALID,24.084,VALID,243.0,VALID,0.0,
2011-10-29, 02:08:05,VALID,1007.677,VALID,0.0,VALID,104.0,VALID,0.0,VALID,24.084,VALID,243.0,VALID,0.0,
2011-10-29, 02:09:05,VALID,1007.705,VALID,0.0,VALID,104.0,VALID,0.0,VALID,24.064,VALID,243.0,VALID,0.0,
2011-10-29, 02:10:05,VALID,1007.702,VALID,0.0,VALID,104.0,VALID,0.0,VALID,24.064,VALID,243.0,VALID,0.0,
2011-10-29, 02:11:05,VALID,1007.699,VALID,0.0,VALID,104.0,VALID,0.0,VALID,24.064,VALID,244.0,VALID,0.0,
2011-10-29, 02:12:05,VALID,1007.701,VALID,0.0,VALID,104.0,VALID,0.0,VALID,24.045,VALID,243.0,VALID,0.0,
2011-10-29, 02:13:05,VALID,1007.714,VALID,0.0,VALID,104.0,VALID,0.0,VALID,24.045,VALID,243.0,VALID,0.0,
2011-10-29, 02:14:05,VALID,1007.724,VALID,0.0,VALID,104.0,VALID,0.0,VALID,24.025,VALID,243.0,VALID,0.0,
2011-10-29, 02:15:05,VALID,1007.733,VALID,0.0,VALID,104.0,VALID,0.0,VALID,23.986,VALID,244.0,VALID,0.0,
2011-10-29, 02:16:05,VALID,1007.746,VALID,0.0,VALID,104.0,VALID,0.0,VALID,23.967,VALID,243.0,VALID,0.0,
2011-10-29, 02:17:05,VALID,1007.795,VALID,0.0,VALID,104.0,VALID,0.0,VALID,23.969,VALID,243.0,VALID,0.0,
2011-10-29, 02:18:05,VALID,1007.786,VALID,0.0,VALID,104.0,VALID,0.0,VALID,23.928,VALID,244.0,VALID,0.0,
2011-10-29, 02:19:05,VALID,1007.836,VALID,0.0,VALID,104.0,VALID,0.0,VALID,23.908,VALID,244.0,VALID,0.0,
2011-10-29, 02:20:05,VALID,1007.865,VALID,0.0,VALID,104.0,VALID,0.0,VALID,23.908,VALID,243.0,VALID,0.0,
2011-10-29, 02:21:05,VALID,1007.888,VALID,0.0,VALID,104.0,VALID,0.0,VALID,23.889,VALID,244.0,VALID,0.0,
2011-10-29, 02:22:05,VALID,1007.932,VALID,0.0,VALID,104.0,VALID,0.0,VALID,23.869,VALID,244.0,VALID,0.0,
2011-10-29, 02:23:05,VALID,1007.943,VALID,0.0,VALID,104.0,VALID,0.0,VALID,23.869,VALID,244.0,VALID,0.0,
2011-10-29, 02:24:05,VALID,1007.968,VALID,0.0,VALID,104.0,VALID,0.0,VALID,23.871,VALID,243.0,VALID,0.0,
2011-10-29, 02:25:05,VALID,1008.003,VALID,0.0,VALID,104.0,VALID,0.0,VALID,23.83,VALID,243.0,VALID,0.0,
2011-10-29, 02:26:05,VALID,1007.995,VALID,0.0,VALID,104.0,VALID,0.0,VALID,23.83,VALID,243.0,VALID,0.0,
2011-10-29, 02:27:05,VALID,1007.998,VALID,0.0,VALID,104.0,VALID,0.0,VALID,23.811,VALID,243.0,VALID,0.0,
2011-10-29, 02:28:05,VALID,1008.052,VALID,0.0,VALID,104.0,VALID,0.0,VALID,23.791,VALID,243.0,VALID,0.0,
2011-10-29, 02:29:05,VALID,1008.058,VALID,0.0,VALID,104.0,VALID,0.0,VALID,23.791,VALID,244.0,VALID,0.0,
2011-10-29, 02:30:05,VALID,1008.095,VALID,0.0,VALID,104.0,VALID,0.0,VALID,23.77,VALID,244.0,VALID,0.0,
2011-10-29, 02:31:05,VALID,1008.123,VALID,0.0,VALID,104.0,VALID,0.0,VALID,23.791,VALID,243.0,VALID,0.0,
2011-10-29, 02:32:05,VALID,1008.143,VALID,0.0,VALID,104.0,VALID,0.0,VALID,23.791,VALID,243.0,VALID,0.0,
2011-10-29, 02:33:05,VALID,1008.185,VALID,0.0,VALID,104.0,VALID,0.0,VALID,23.791,VALID,243.0,VALID,0.0,
2011-10-29, 02:34:05,VALID,1008.197,VALID,0.0,VALID,104.0,VALID,0.0,VALID,23.772,VALID,244.0,VALID,0.0,
2011-10-29, 02:35:05,VALID,1008.229,VALID,0.0,VALID,104.0,VALID,0.0,VALID,23.752,VALID,244.0,VALID,0.0,
2011-10-29, 02:36:05,VALID,1008.244,VALID,0.0,VALID,104.0,VALID,0.0,VALID,23.752,VALID,244.0,VALID,0.0,
2011-10-29, 02:37:05,VALID,1008.27,VALID,0.0,VALID,104.0,VALID,0.0,VALID,23.733,VALID,244.0,VALID,0.0,
2011-10-29, 02:38:05,VALID,1008.264,VALID,0.0,VALID,104.0,VALID,0.0,VALID,23.713,VALID,243.0,VALID,0.0,
2011-10-29, 02:39:05,VALID,1008.293,VALID,0.0,VALID,104.0,VALID,0.0,VALID,23.713,VALID,243.0,VALID,0.0,
2011-10-29, 02:40:05,VALID,1008.272,VALID,0.0,VALID,104.0,VALID,0.0,VALID,23.694,VALID,244.0,VALID,0.0,
2011-10-29, 02:41:05,VALID,1008.269,VALID,0.0,VALID,104.0,VALID,0.0,VALID,23.694,VALID,243.0,VALID,0.0,
2011-10-29, 02:42:05,VALID,1008.242,VALID,0.0,VALID,104.0,VALID,0.0,VALID,23.675,VALID,243.0,VALID,0.0,
2011-10-29, 02:43:05,VALID,1008.278,VALID,0.0,VALID,104.0,VALID,0.0,VALID,23.655,VALID,244.0,VALID,0.0,
2011-10-29, 02:44:05,VALID,1008.302,VALID,0.0,VALID,104.0,VALID,0.0,VALID,23.636,VALID,244.0,VALID,0.0,
2011-10-29, 02:45:05,VALID,1008.321,VALID,0.0,VALID,104.0,VALID,0.0,VALID,23.616,VALID,243.0,VALID,0.0,
2011-10-29, 02:46:05,VALID,1008.329,VALID,0.0,VALID,104.0,VALID,0.0,VALID,23.597,VALID,243.0,VALID,0.0,
2011-10-29, 02:47:04,VALID,1008.334,VALID,0.0,VALID,104.0,VALID,0.0,VALID,23.577,VALID,244.0,VALID,0.0,
2011-10-29, 02:48:04,VALID,1008.318,VALID,0.0,VALID,104.0,VALID,0.0,VALID,23.558,VALID,243.0,VALID,0.0,
2011-10-29, 02:49:04,VALID,1008.322,VALID,0.0,VALID,104.0,VALID,0.0,VALID,23.558,VALID,243.0,VALID,0.0,
2011-10-29, 02:50:04,VALID,1008.363,VALID,0.0,VALID,104.0,VALID,0.0,VALID,23.558,VALID,243.0,VALID,0.0,
2011-10-29, 02:51:04,VALID,1008.343,VALID,0.0,VALID,104.0,VALID,0.0,VALID,23.558,VALID,243.0,VALID,0.0,
2011-10-29, 02:52:04,VALID,1008.354,VALID,0.0,VALID,104.0,VALID,0.0,VALID,23.558,VALID,243.0,VALID,0.118,
2011-10-29, 02:53:04,VALID,1008.368,VALID,0.0,VALID,104.0,VALID,0.0,VALID,23.558,VALID,244.0,VALID,0.434,
2011-10-29, 02:54:04,VALID,1008.37,VALID,0.0,VALID,104.0,VALID,0.0,VALID,23.579,VALID,245.0,VALID,0.282,
2011-10-29, 02:55:04,VALID,1008.367,VALID,0.0,VALID,104.0,VALID,0.0,VALID,23.538,VALID,245.0,VALID,0.07,
2011-10-29, 02:56:04,VALID,1008.391,VALID,0.0,VALID,104.0,VALID,0.0,VALID,23.519,VALID,245.0,VALID,0.0,
2011-10-29, 02:57:04,VALID,1008.385,VALID,0.0,VALID,104.0,VALID,0.0,VALID,23.519,VALID,245.0,VALID,0.296,
2011-10-29, 02:58:04,VALID,1008.416,VALID,0.0,VALID,104.0,VALID,0.0,VALID,23.517,VALID,245.0,VALID,0.228,
2011-10-29, 02:59:04,VALID,1008.407,VALID,0.0,VALID,104.0,VALID,0.0,VALID,23.558,VALID,245.0,VALID,0.0,
2011-10-29, 03:00:04,VALID,1008.441,VALID,0.0,VALID,104.0,VALID,0.0,VALID,23.538,VALID,245.0,VALID,0.0,
2011-10-29, 03:01:04,VALID,1008.421,VALID,0.0,VALID,104.0,VALID,0.0,VALID,23.538,VALID,245.0,VALID,0.0,
2011-10-29, 03:02:04,VALID,1008.425,VALID,0.0,VALID,104.0,VALID,0.0,VALID,23.519,VALID,245.0,VALID,0.0,
2011-10-29, 03:03:04,VALID,1008.401,VALID,0.0,VALID,104.0,VALID,0.0,VALID,23.519,VALID,245.0,VALID,0.0,
2011-10-29, 03:04:04,VALID,1008.381,VALID,0.0,VALID,104.0,VALID,0.0,VALID,23.499,VALID,245.0,VALID,0.0,
2011-10-29, 03:05:04,VALID,1008.418,VALID,0.0,VALID,104.0,VALID,0.0,VALID,23.499,VALID,245.0,VALID,0.0,
2011-10-29, 03:06:04,VALID,1008.444,VALID,0.0,VALID,104.0,VALID,0.0,VALID,23.48,VALID,245.0,VALID,0.0,
2011-10-29, 03:07:04,VALID,1008.476,VALID,0.0,VALID,104.0,VALID,0.0,VALID,23.46,VALID,244.0,VALID,0.0,
2011-10-29, 03:08:04,VALID,1008.502,VALID,0.0,VALID,104.0,VALID,0.0,VALID,23.48,VALID,245.0,VALID,0.0,
2011-10-29, 03:09:04,VALID,1008.503,VALID,0.0,VALID,104.0,VALID,0.0,VALID,23.46,VALID,245.0,VALID,0.0,
2011-10-29, 03:10:04,VALID,1008.524,VALID,0.0,VALID,104.0,VALID,0.0,VALID,23.48,VALID,245.0,VALID,0.0,
2011-10-29, 03:11:04,VALID,1008.501,VALID,0.0,VALID,104.0,VALID,0.0,VALID,23.48,VALID,245.0,VALID,0.0,
2011-10-29, 03:12:04,VALID,1008.53,VALID,0.0,VALID,104.0,VALID,0.0,VALID,23.46,VALID,245.0,VALID,0.0,
2011-10-29, 03:13:04,VALID,1008.55,VALID,0.0,VALID,104.0,VALID,0.0,VALID,23.48,VALID,245.0,VALID,0.0,
2011-10-29, 03:14:04,VALID,1008.554,VALID,0.0,VALID,104.0,VALID,0.0,VALID,23.46,VALID,245.0,VALID,0.0,
2011-10-29, 03:15:04,VALID,1008.589,VALID,0.0,VALID,104.0,VALID,0.0,VALID,23.46,VALID,245.0,VALID,0.0,
2011-10-29, 03:16:04,VALID,1008.602,VALID,0.0,VALID,104.0,VALID,0.0,VALID,23.46,VALID,245.0,VALID,0.0,
2011-10-29, 03:17:04,VALID,1008.653,VALID,0.0,VALID,104.0,VALID,0.0,VALID,23.46,VALID,245.0,VALID,0.0,
2011-10-29, 03:18:04,VALID,1008.689,VALID,0.0,VALID,104.0,VALID,0.0,VALID,23.46,VALID,244.0,VALID,0.0,
2011-10-29, 03:19:04,VALID,1008.741,VALID,0.0,VALID,104.0,VALID,0.0,VALID,23.46,VALID,245.0,VALID,0.0,
2011-10-29, 03:20:04,VALID,1008.789,VALID,0.0,VALID,104.0,VALID,0.0,VALID,23.48,VALID,245.0,VALID,0.0,
2011-10-29, 03:21:04,VALID,1008.78,VALID,0.0,VALID,104.0,VALID,0.0,VALID,23.48,VALID,245.0,VALID,0.0,
2011-10-29, 03:22:04,VALID,1008.761,VALID,0.0,VALID,104.0,VALID,0.0,VALID,23.46,VALID,244.0,VALID,0.0,
2011-10-29, 03:23:04,VALID,1008.768,VALID,0.0,VALID,104.0,VALID,0.0,VALID,23.48,VALID,245.0,VALID,0.0,
2011-10-29, 03:24:04,VALID,1008.774,VALID,0.0,VALID,104.0,VALID,0.0,VALID,23.46,VALID,245.0,VALID,0.0,
2011-10-29, 03:25:04,VALID,1008.781,VALID,0.0,VALID,104.0,VALID,0.0,VALID,23.48,VALID,245.0,VALID,0.0,
2011-10-29, 03:26:04,VALID,1008.771,VALID,0.0,VALID,104.0,VALID,0.0,VALID,23.458,VALID,245.0,VALID,0.0,
2011-10-29, 03:27:04,VALID,1008.832,VALID,0.0,VALID,104.0,VALID,0.0,VALID,23.48,VALID,245.0,VALID,0.0,
2011-10-29, 03:28:04,VALID,1008.852,VALID,0.0,VALID,104.0,VALID,0.0,VALID,23.46,VALID,245.0,VALID,0.0,
2011-10-29, 03:29:04,VALID,1008.887,VALID,0.0,VALID,104.0,VALID,0.0,VALID,23.48,VALID,245.0,VALID,0.0,
2011-10-29, 03:30:04,VALID,1008.934,VALID,0.0,VALID,104.0,VALID,0.0,VALID,23.48,VALID,245.0,VALID,0.0,
2011-10-29, 03:31:04,VALID,1008.956,VALID,0.0,VALID,104.0,VALID,0.0,VALID,23.46,VALID,245.0,VALID,0.0,
2011-10-29, 03:32:04,VALID,1009.003,VALID,0.0,VALID,104.0,VALID,0.0,VALID,23.439,VALID,245.0,VALID,0.0,
2011-10-29, 03:33:04,VALID,1009.014,VALID,0.0,VALID,104.0,VALID,0.0,VALID,23.4,VALID,245.0,VALID,0.0,
2011-10-29, 03:34:04,VALID,1009.019,VALID,0.0,VALID,104.0,VALID,0.0,VALID,23.402,VALID,245.0,VALID,0.0,
2011-10-29, 03:35:04,VALID,1009.015,VALID,0.0,VALID,104.0,VALID,0.0,VALID,23.363,VALID,245.0,VALID,0.0,
2011-10-29, 03:36:04,VALID,1009.018,VALID,0.0,VALID,104.0,VALID,0.0,VALID,23.363,VALID,245.0,VALID,0.0,
2011-10-29, 03:37:04,VALID,1009.012,VALID,0.0,VALID,104.0,VALID,0.0,VALID,23.343,VALID,245.0,VALID,0.0,
2011-10-29, 03:38:04,VALID,1009.031,VALID,0.0,VALID,104.0,VALID,0.0,VALID,23.343,VALID,245.0,VALID,0.0,
2011-10-29, 03:39:04,VALID,1009.01,VALID,0.0,VALID,104.0,VALID,0.0,VALID,23.363,VALID,245.0,VALID,0.0,
2011-10-29, 03:40:04,VALID,1009.029,VALID,0.0,VALID,104.0,VALID,0.0,VALID,23.363,VALID,245.0,VALID,0.0,
2011-10-29, 03:41:04,VALID,1009.023,VALID,0.0,VALID,104.0,VALID,0.0,VALID,23.382,VALID,245.0,VALID,0.0,
2011-10-29, 03:42:04,VALID,1009.018,VALID,0.0,VALID,104.0,VALID,0.112,VALID,23.363,VALID,245.0,VALID,0.0,